GFSNE_sfc_dewp_159.txt.gz
Dewpoint
30 30 28 28 29 29 28 28 27 26 24 27 25 29 29 29 32 33 33 36 39 39 42 41 42 43 42 44 44 46 47 49 50 51 52 53 55 58
24 27 27 27 27 28 26 27 26 26 24 24 24 27 27 23 27 32 32 37 37 39 39 39 39 40 40 40 41 42 44 44 46 48 50 51 53 54
26 25 25 25 26 25 26 25 24 24 23 23 24 25 25 25 24 30 31 33 34 38 39 37 37 38 37 38 38 39 40 41 42 43 45 48 51 52
24 24 23 20 25 24 24 24 23 23 22 23 23 22 22 23 23 28 27 31 33 38 38 36 35 35 35 36 36 36 37 38 40 41 42 45 47 49
23 24 22 22 23 22 22 22 20 18 21 21 19 20 20 20 20 24 27 32 28 34 35 34 33 33 33 34 34 35 35 36 37 38 38 39 41 43
23 23 22 21 21 20 19 20 18 19 19 17 17 17 17 18 18 19 24 28 28 28 34 36 35 33 31 31 32 32 33 34 35 36 36 35 36 38
21 20 22 20 18 18 19 20 18 18 18 16 16 15 15 14 14 17 21 25 31 25 27 33 34 31 31 30 30 31 31 33 34 34 35 34 34 35
21 21 21 21 18 17 16 16 18 19 19 18 16 15 15 14 14 17 18 23 22 23 25 33 35 31 29 30 29 29 31 31 33 35 35 34 33 33
23 23 22 22 19 18 17 15 16 17 18 20 17 17 15 17 16 15 18 22 25 21 23 30 30 33 31 26 27 26 26 28 31 32 34 35 35 32
24 22 22 21 18 17 18 18 18 19 17 18 18 18 18 17 17 18 20 24 31 25 22 24 27 29 33 31 24 27 24 25 26 31 32 33 35 35
22 19 20 19 15 15 17 16 17 17 17 13 13 14 15 16 17 15 17 18 24 23 22 22 26 28 32 30 28 24 24 23 24 26 27 29 31 35
21 22 15 15 14 14 17 17 15 16 18 18 20 20 19 19 17 21 18 16 20 19 20 20 24 26 26 30 28 27 29 22 22 24 26 26 27 30
22 22 20 13 12 13 13 15 13 18 17 19 20 21 21 21 21 20 20 18 15 16 18 21 22 23 22 21 23 25 26 25 26 26 25 26 25 29
21 21 16 11 11 12 13 11 12 16 20 19 19 19 19 19 21 21 19 20 19 17 18 21 19 20 20 18 17 22 23 24 24 24 27 25 24 24
21 14 9 7 8 12 10 12 15 19 19 18 17 18 19 20 20 21 21 20 21 20 20 20 19 20 20 17 16 18 18 20 22 22 24 26 26 26
11 14 12 10 9 11 13 14 15 15 16 15 15 15 14 14 14 16 16 17 16 16 19 20 19 19 16 15 14 15 17 14 18 20 22 23 24 24
16 17 18 17 16 15 13 11 11 11 12 13 12 11 8 7 6 8 9 9 10 8 11 9 19 20 17 16 13 13 14 15 17 18 18 19 22 22
15 17 17 18 15 11 11 9 8 7 6 7 9 8 8 7 6 6 7 7 4 2 -0 1 5 9 11 13 13 11 11 12 14 17 17 16 17 19
15 14 17 17 11 4 4 3 6 5 4 8 9 10 11 9 8 6 6 6 4 -0 -3 -3 -3 0 5 7 8 11 8 8 10 10 11 13 14 15
9 12 14 12 5 2 3 5 8 11 10 9 11 11 12 10 9 7 6 7 5 1 -1 -2 -3 -3 0 4 9 10 8 8 7 6 6 8 12 9
5 6 9 6 3 3 12 13 13 12 12 13 12 10 12 10 8 8 8 8 7 1 1 -1 -1 8 -1 2 8 7 7 8 6 4 5 5 5 4
7 4 5 5 7 9 14 14 14 13 13 11 13 13 12 11 9 8 9 8 4 3 1 -0 -1 -0 -0 0 1 6 5 7 5 4 2 1 5 3
13 8 10 12 13 13 10 12 9 11 10 9 10 9 10 10 8 8 8 7 4 4 2 0 0 0 0 0 2 4 6 7 2 2 3 5 5 5

GFSNE_sfc_dewp_162.txt.gz
Dewpoint
32 30 30 31 32 31 29 29 28 26 25 27 27 29 29 30 34 33 37 38 39 39 39 39 40 41 41 40 41 42 44 45 46 47 50 51 53 54
28 28 28 28 29 29 27 29 28 27 25 26 26 28 27 22 27 31 31 36 38 37 37 37 37 38 39 38 38 39 40 42 44 45 46 48 50 52
27 27 26 27 28 28 28 28 26 26 24 24 26 27 26 23 23 31 32 33 36 36 35 35 35 35 35 35 36 37 38 40 40 42 44 46 48 50
26 26 24 22 25 25 25 25 24 24 24 23 23 25 23 20 22 27 28 32 34 35 33 32 32 33 33 33 34 34 35 36 38 38 39 41 45 47
25 23 21 21 21 20 22 22 21 19 23 23 21 23 21 19 20 22 26 32 27 33 36 33 31 30 30 31 32 33 34 34 36 36 36 37 39 41
25 23 21 20 19 18 18 19 18 19 21 20 20 19 18 17 18 18 22 32 26 25 31 37 30 30 29 29 31 32 33 35 36 36 34 34 36 37
23 22 22 21 19 18 17 18 17 17 18 18 17 15 15 14 14 17 19 24 25 22 26 32 34 28 28 29 28 30 32 34 36 36 35 34 33 34
23 23 22 20 20 18 18 18 18 16 18 18 16 14 14 14 15 17 18 21 23 22 23 28 31 30 25 25 26 27 30 32 34 35 36 35 34 33
22 23 22 21 18 20 18 19 18 17 18 17 15 13 14 15 16 16 18 21 22 19 22 26 26 29 27 24 27 25 26 28 32 32 34 35 35 33
18 18 17 13 13 16 16 15 14 12 12 17 11 9 12 16 17 18 19 25 22 20 19 16 21 23 29 25 25 26 24 25 29 29 31 32 34 34
15 13 12 10 15 17 12 9 9 9 17 14 14 17 18 17 17 16 16 18 22 14 17 14 18 22 27 23 23 25 23 24 25 29 26 28 27 29
20 14 14 11 15 16 10 10 7 7 10 15 18 16 18 16 18 17 16 14 15 10 14 15 18 20 19 21 21 21 22 22 23 25 28 26 26 25
21 18 11 13 14 14 14 8 6 13 15 17 17 18 17 17 15 15 14 13 11 7 13 15 16 17 19 15 18 20 23 20 21 22 26 23 29 23
20 14 9 12 13 13 12 13 15 17 17 14 14 14 13 13 16 18 16 15 13 11 13 15 13 14 14 9 11 17 18 18 20 20 22 24 22 24
14 14 10 9 10 14 12 14 16 16 15 13 11 10 12 14 17 18 19 19 18 15 17 14 14 12 13 10 9 13 13 16 17 18 20 24 21 22
10 10 9 13 7 9 13 14 13 12 13 13 13 14 15 16 14 16 15 16 14 14 16 14 14 14 11 12 12 9 13 11 14 16 18 19 20 22
15 12 11 14 15 14 13 12 13 13 11 11 11 13 13 12 13 14 15 16 13 11 11 13 18 17 13 9 5 5 5 6 11 13 15 14 18 19
16 17 13 13 13 13 13 12 11 9 11 12 12 12 13 12 11 11 10 12 10 9 8 8 8 11 15 15 12 6 5 5 7 11 11 6 8 13
15 17 16 16 14 11 9 10 9 9 8 13 12 11 13 14 12 11 10 8 8 5 3 3 2 4 3 -1 10 11 7 8 8 7 9 8 4 9
13 16 16 16 12 9 9 10 11 11 10 11 9 8 7 13 11 11 9 9 7 4 4 1 1 1 4 -0 1 9 9 10 8 6 6 8 8 8
12 13 15 13 10 10 14 13 11 8 7 7 8 7 4 10 8 9 9 5 6 4 3 2 1 9 5 10 2 5 10 9 9 9 9 5 4 5
13 11 12 12 12 14 13 12 11 5 10 9 6 4 3 8 5 6 6 5 8 7 4 3 2 3 3 4 4 0 9 11 10 8 6 4 5 -3
15 13 13 14 14 14 14 13 11 11 9 7 7 7 0 4 7 7 6 7 8 7 5 2 3 2 3 2 4 7 6 4 6 7 7 8 9 8

GFSNE_sfc_dewp_168.txt.gz
Dewpoint
29 28 27 29 30 28 28 28 27 24 24 25 23 26 26 28 35 35 36 36 36 34 34 34 35 35 36 36 37 38 39 39 40 42 44 47 49 50
27 26 27 27 27 27 26 27 26 25 23 24 24 22 22 20 29 34 34 36 35 33 32 32 32 33 33 34 35 36 37 37 39 40 42 45 48 50
25 25 24 23 22 23 25 23 22 23 20 21 25 21 19 20 21 24 34 34 35 34 31 31 30 31 32 32 34 35 36 36 36 39 41 43 44 47
23 22 21 20 19 20 21 20 20 21 21 19 23 19 17 18 20 22 30 27 33 37 33 29 30 29 30 30 33 34 35 36 35 36 38 40 42 44
21 20 18 17 17 19 19 18 19 20 21 21 20 18 18 16 18 20 26 25 21 33 35 29 30 28 28 30 32 33 34 36 34 35 36 35 37 39
21 20 19 19 18 17 15 16 18 20 20 18 17 16 13 14 17 17 18 23 21 29 33 27 28 28 27 28 30 34 34 35 34 34 33 35 35 35
22 20 22 22 21 19 16 17 17 18 18 15 14 12 11 13 14 16 17 19 21 23 27 29 26 25 27 26 27 32 34 34 34 33 32 32 32 33
20 20 21 22 21 20 20 19 18 13 16 13 12 12 13 14 15 16 17 18 23 19 21 25 25 23 26 24 26 30 33 33 33 32 30 30 30 30
22 21 18 21 20 21 20 18 18 16 15 14 13 9 13 12 15 15 17 19 15 17 20 21 23 18 23 23 25 28 30 34 28 27 26 25 26 28
11 10 10 9 10 17 14 9 4 5 9 16 8 6 6 13 16 16 18 18 15 13 17 17 20 16 16 21 23 26 28 30 26 25 24 22 21 24
7 4 4 3 16 20 7 2 -2 1 12 17 20 18 20 19 16 16 18 19 8 2 9 11 16 16 14 14 20 22 25 25 30 25 24 21 20 20
4 6 16 7 19 18 4 2 1 3 1 6 7 11 12 11 19 7 14 10 3 3 11 12 12 14 13 14 16 18 18 21 24 28 22 21 20 18
5 2 2 16 17 19 15 4 5 0 6 0 -0 0 1 4 8 10 5 5 2 2 11 11 8 9 8 6 12 13 16 16 18 21 21 20 19 18
5 -1 2 16 16 17 12 17 18 7 2 -1 -1 -1 1 2 3 8 5 3 6 9 10 13 9 8 4 3 4 11 11 14 16 17 20 18 18 17
8 10 16 16 16 16 18 17 10 5 -2 -3 -5 -4 -1 4 8 9 12 13 13 13 15 11 12 8 7 2 4 4 6 11 13 14 16 18 17 16
16 15 12 13 8 8 12 12 10 5 4 0 -0 2 9 10 10 11 10 12 9 9 14 13 12 10 6 6 7 4 7 6 8 9 12 13 13 15
11 10 9 10 10 11 12 11 12 12 10 7 8 11 12 13 13 13 13 12 6 5 5 11 16 14 8 7 5 3 3 2 3 6 10 8 9 13
12 11 8 9 12 13 12 11 11 11 12 12 13 13 13 13 12 12 12 11 9 9 6 8 8 9 10 10 11 4 2 2 1 4 5 -0 2 7
13 12 11 13 14 15 13 10 10 11 12 13 12 11 13 13 12 10 10 9 9 8 3 3 7 7 -2 -6 6 11 4 5 6 5 6 2 -2 3
14 14 14 14 14 14 12 10 10 12 12 11 10 9 8 11 11 10 9 8 9 6 5 3 3 4 4 -4 -4 5 12 8 5 4 5 5 5 11
12 13 15 15 12 11 12 11 10 10 10 6 8 7 3 9 9 9 8 5 7 5 5 4 4 8 7 10 -2 2 8 10 10 10 9 2 2 4
12 13 15 14 12 11 10 10 8 7 7 8 3 4 2 7 5 6 5 5 7 7 5 5 3 4 5 4 4 -3 7 6 10 9 7 8 2 -6
6 10 12 10 10 10 11 10 11 9 10 9 7 0 -2 5 6 6 5 5 6 5 4 3 1 2 0 1 4 3 3 1 7 3 8 6 5 6

GFSNE_sfc_dewp_171.txt.gz
Dewpoint
28 28 28 30 30 29 29 29 26 23 25 25 24 22 25 30 35 35 34 34 33 33 32 33 34 34 35 35 36 37 37 39 40 41 42 44 46 49
28 26 26 26 26 27 27 27 27 26 23 23 22 20 21 21 28 31 34 35 34 31 31 31 31 32 32 33 34 36 35 37 39 40 42 43 45 48
25 25 24 23 23 24 24 23 22 23 22 22 21 19 16 18 21 27 35 34 36 34 30 29 29 29 32 33 34 36 35 35 37 38 40 42 44 45
23 22 21 19 20 21 21 20 20 21 21 19 21 18 16 16 19 23 26 22 29 35 31 29 29 29 29 32 33 34 35 34 34 35 37 38 40 41
21 19 17 18 19 19 18 18 19 20 21 22 18 17 17 16 18 19 21 23 27 36 29 29 29 28 28 29 33 33 35 34 33 32 32 34 35 36
19 18 18 18 19 16 15 16 18 19 19 18 17 15 13 14 17 17 18 22 21 28 30 28 28 28 27 28 30 33 34 34 32 31 30 30 32 34
21 21 23 22 20 19 16 17 17 18 17 15 14 12 12 13 14 15 16 18 19 22 27 26 25 25 25 26 28 30 32 32 31 29 29 29 28 31
21 22 23 22 21 21 20 20 17 15 15 13 13 12 13 14 14 16 17 18 21 19 23 22 23 22 24 25 28 29 33 28 26 25 26 27 29 28
22 21 20 22 21 22 19 19 17 17 15 14 13 9 13 12 14 15 18 17 15 17 20 14 21 17 21 23 25 28 32 26 25 23 23 24 25 26
16 11 12 11 13 16 13 8 3 4 7 16 8 4 7 12 15 16 19 16 14 13 17 13 15 10 15 19 25 26 28 27 25 23 21 21 22 25
12 7 8 7 17 19 10 5 -1 2 12 20 20 19 20 18 17 18 19 18 9 2 8 11 10 10 11 10 18 23 25 27 23 22 22 19 20 20
6 8 17 11 20 19 6 4 1 0 -2 4 5 8 9 9 18 4 10 13 3 2 5 11 11 12 12 13 13 16 17 23 22 21 20 20 18 18
8 6 6 17 19 18 15 5 5 -2 3 -2 -1 -3 -2 1 2 -1 -3 6 1 -2 7 8 5 7 8 4 10 12 14 15 18 19 19 18 19 17
9 3 2 17 18 19 14 16 19 5 -1 -1 1 -2 -2 -1 -0 -0 -1 1 1 5 7 12 8 7 3 2 3 8 9 12 14 16 19 19 18 18
8 11 16 17 17 17 18 19 10 4 -3 1 -3 -4 -5 -1 1 6 9 12 11 11 13 10 11 7 5 1 3 2 5 10 11 11 13 14 15 18
16 16 12 13 8 7 14 10 6 7 6 6 3 3 6 7 7 8 8 8 5 7 13 10 10 10 5 5 6 4 5 5 7 8 11 12 14 14
14 10 9 10 10 11 12 10 11 12 11 10 10 11 13 13 13 14 14 12 6 5 5 11 15 13 9 7 4 3 3 4 5 7 10 7 9 12
14 10 5 7 11 12 12 12 12 12 13 13 14 14 13 13 12 12 12 10 7 7 6 8 8 9 10 10 11 5 3 3 4 6 7 2 4 8
12 11 10 9 10 13 13 11 10 12 12 14 12 12 14 13 12 10 11 10 7 5 3 5 7 6 1 -5 6 10 5 5 6 5 5 1 -2 3
12 11 12 13 14 15 14 11 11 12 11 12 10 10 10 12 12 10 9 9 9 6 4 3 4 5 5 0 -1 5 10 7 5 4 5 4 5 10
14 13 15 16 16 15 14 10 10 10 5 5 9 7 5 10 9 9 8 6 8 7 4 3 4 9 8 8 -3 0 7 10 11 10 8 1 1 3
16 14 14 15 14 13 10 9 9 7 7 4 2 3 0 7 7 7 6 7 8 7 4 5 2 3 4 4 4 -5 5 5 9 7 8 6 -1 -6
9 11 10 10 10 9 11 9 10 10 9 8 5 5 -2 4 6 7 6 7 7 5 5 3 2 2 1 3 3 1 2 1 5 4 6 3 3 4

GFSNE_sfc_dewp_177.txt.gz
Dewpoint
33 33 31 31 32 32 31 31 29 26 25 29 26 29 34 35 36 34 33 33 32 31 31 31 32 33 34 35 37 36 37 38 39 40 41 43 44 45
30 30 30 30 30 30 30 31 30 27 26 26 24 24 26 28 33 34 32 34 31 31 30 29 30 31 33 34 35 34 35 36 36 37 39 41 43 43
28 28 27 28 27 27 28 28 28 28 24 25 21 22 22 26 31 32 32 32 34 32 30 29 28 30 31 33 34 34 33 33 34 35 36 38 39 41
29 29 28 25 25 25 25 25 25 26 25 24 21 19 19 21 27 29 26 27 31 32 30 29 28 29 30 30 33 34 30 31 31 31 32 34 36 38
26 23 22 23 22 22 22 22 23 21 24 24 21 20 18 18 20 24 26 29 33 30 29 28 28 28 28 30 33 31 29 28 29 30 30 31 32 34
22 19 18 20 21 19 17 19 20 20 21 21 19 16 15 14 17 17 21 25 26 26 27 26 26 27 28 29 33 28 27 26 28 30 29 29 30 29
23 22 21 21 20 18 15 17 19 18 17 17 16 14 12 10 9 14 16 22 26 25 25 26 25 23 25 28 32 26 24 25 25 26 28 27 28 27
24 25 26 25 24 21 20 19 23 23 18 16 14 11 11 11 11 14 16 19 19 24 23 24 25 23 24 27 30 25 24 22 22 23 24 27 25 25
28 26 25 26 24 22 21 20 19 19 20 20 17 18 17 19 15 15 19 22 21 22 22 24 23 25 25 24 32 25 24 24 21 21 21 21 24 23
28 27 26 25 24 21 20 20 21 23 23 23 23 23 23 22 19 21 22 23 24 24 25 22 25 24 26 25 26 28 23 21 22 19 18 19 20 22
25 24 23 23 23 19 19 19 21 22 23 23 22 20 19 19 18 18 19 19 23 23 26 25 24 23 25 24 24 24 22 21 20 22 21 19 17 17
22 22 21 22 22 18 19 20 19 21 23 22 22 21 20 20 18 25 23 21 22 22 24 23 23 23 21 23 24 24 24 19 19 20 19 19 18 19
24 22 23 21 24 19 18 21 21 20 17 20 21 22 22 22 22 22 25 26 22 22 23 24 23 22 23 20 19 20 20 19 19 19 16 17 18 19
23 23 23 23 22 19 20 19 20 19 22 22 21 21 20 21 22 22 21 21 21 19 20 22 22 21 21 19 17 16 17 18 19 18 18 15 16 17
23 21 20 20 21 20 20 20 19 22 21 20 21 21 22 22 21 22 21 20 19 19 20 18 19 19 20 18 16 15 16 15 15 15 16 17 17 19
19 21 21 21 21 21 21 23 23 22 20 19 20 20 20 19 18 20 19 19 18 17 18 19 19 18 16 15 13 13 15 13 14 14 15 15 14 16
21 21 21 21 21 20 21 20 21 19 18 17 17 16 14 15 14 12 14 14 16 15 16 15 19 18 17 16 15 15 15 15 16 15 14 14 16 15
19 19 19 20 18 17 17 17 18 16 14 13 14 12 11 11 11 13 8 8 9 10 11 12 12 12 12 14 14 15 15 15 15 16 15 14 13 15
20 19 20 19 17 14 14 14 16 15 12 12 13 14 14 11 11 10 9 5 4 3 2 3 4 7 8 10 10 13 14 14 14 13 13 13 13 14
19 19 20 19 15 10 12 13 14 16 16 15 16 16 17 15 14 11 9 10 6 3 2 1 2 3 6 12 13 14 10 14 13 11 10 11 14 10
18 18 19 18 14 10 17 17 19 19 18 19 17 17 19 15 14 12 12 11 10 4 3 3 3 7 5 9 13 12 10 9 11 10 11 10 8 7
19 17 18 17 16 15 20 21 20 19 18 18 19 19 19 18 16 14 14 13 8 8 5 5 2 1 3 5 5 10 7 8 5 6 6 6 9 8
22 19 19 20 20 19 18 20 18 19 17 16 16 16 18 17 15 15 14 12 9 8 6 4 2 0 -1 0 4 7 2 5 1 1 3 1 1 3

GFSNE_sfc_dewp_180.txt.gz
Dewpoint
37 36 34 33 34 34 33 35 33 30 29 33 29 34 35 35 35 34 34 32 31 31 31 31 33 34 34 35 36 36 36 37 37 38 40 41 43 44
33 33 32 33 32 33 31 32 31 28 27 30 28 31 34 31 35 35 34 33 32 30 30 30 31 32 33 34 34 33 34 35 35 37 38 39 41 42
32 32 32 32 30 30 31 30 29 28 26 28 27 29 30 30 32 33 34 34 32 31 30 30 30 30 31 32 33 31 31 31 33 33 34 36 39 39
32 32 31 30 31 31 30 29 29 29 26 26 25 26 26 29 31 32 26 25 32 31 29 28 29 29 29 30 31 29 28 29 30 30 31 33 34 35
32 32 30 29 29 26 26 26 25 22 27 25 23 23 23 23 28 28 28 31 32 30 29 28 27 27 28 34 29 27 27 27 30 29 29 30 30 31
32 27 23 24 25 23 22 23 23 23 23 24 22 21 20 21 22 22 23 27 27 27 27 26 24 26 28 29 26 25 25 25 27 28 27 27 27 28
26 21 23 24 24 24 19 21 21 21 20 19 18 17 16 17 18 17 18 24 27 27 26 26 25 24 26 32 26 24 23 23 24 25 26 26 25 25
28 28 27 26 25 24 25 25 27 27 20 19 18 16 16 15 13 14 16 22 21 25 25 25 26 24 25 31 25 24 23 21 22 23 23 24 24 24
31 29 25 26 25 24 25 24 24 24 23 25 21 21 17 20 16 16 18 23 24 24 25 26 27 27 26 25 28 23 24 21 20 19 20 21 23 22
33 33 32 29 28 25 25 24 25 26 27 26 27 27 28 24 21 21 22 28 27 26 29 25 28 27 28 26 25 24 22 23 24 22 19 18 18 19
31 31 31 29 25 23 23 23 24 24 23 22 21 20 20 19 21 20 22 21 24 25 30 29 27 26 28 27 26 21 21 21 21 19 20 19 18 17
29 29 25 27 24 23 24 24 22 24 25 23 24 24 23 23 19 30 26 24 26 24 28 27 25 26 24 26 26 27 27 17 17 17 18 18 21 21
29 28 29 22 24 22 22 24 23 25 24 24 24 26 26 27 27 29 30 31 25 27 27 29 25 24 26 23 23 24 24 24 23 21 17 17 17 20
30 31 29 22 23 21 21 20 21 22 26 26 26 25 25 25 26 26 26 27 26 27 27 27 25 24 23 22 21 22 23 23 23 22 22 17 16 17
31 28 23 22 24 21 19 20 21 25 26 26 26 26 26 25 25 25 24 24 23 23 23 21 24 25 25 23 20 19 21 20 21 20 20 20 19 21
25 25 24 24 24 22 22 22 24 26 25 25 25 26 24 23 23 23 22 23 21 19 22 22 23 23 21 20 19 18 19 18 20 19 20 19 17 18
25 24 24 25 24 23 22 22 23 22 22 23 23 21 19 17 16 17 17 18 20 19 18 17 21 22 21 19 18 19 19 19 19 17 17 18 19 18
25 24 24 24 22 20 20 20 20 19 18 17 19 17 15 15 14 12 11 13 15 14 14 14 15 14 14 14 17 17 18 18 19 18 17 17 18 18
25 23 24 24 22 17 17 17 18 17 14 15 16 17 16 14 14 13 11 9 7 6 7 8 8 11 11 14 14 13 17 16 16 16 15 16 16 17
23 23 24 23 19 15 15 15 16 18 17 16 18 19 21 17 16 13 12 13 9 4 3 1 2 3 8 17 18 17 11 15 16 15 14 15 16 10
22 22 23 21 19 14 19 21 23 22 22 22 21 20 23 18 18 15 14 14 12 5 3 2 3 10 6 9 16 15 13 7 11 12 12 12 11 10
23 22 21 21 21 20 23 24 24 23 23 22 23 24 24 22 19 17 18 17 11 10 5 5 4 3 2 5 7 13 12 11 10 7 7 7 12 12
27 23 23 24 25 24 19 23 21 23 21 21 21 21 23 21 19 18 18 16 12 9 8 6 4 2 1 -1 5 9 5 9 5 4 6 8 4 3

GFSNE_sfc_dewp_183.txt.gz
Dewpoint
44 43 41 39 40 41 41 41 41 39 36 38 34 38 38 37 35 36 33 33 31 31 32 32 33 34 34 36 35 35 36 37 37 38 40 42 42 43
39 38 36 36 35 36 35 36 39 39 35 34 34 35 36 34 36 36 34 33 31 31 31 31 32 32 33 34 33 33 34 34 35 36 37 38 39 39
36 34 34 34 32 32 33 33 33 32 30 32 32 35 37 35 32 35 34 33 32 31 30 30 30 30 31 33 31 30 30 31 31 33 34 35 36 37
33 33 32 29 32 32 30 31 31 31 33 32 29 31 32 34 35 33 32 31 32 30 30 30 29 29 32 31 29 28 28 29 29 29 30 30 32 33
34 33 34 34 35 34 35 35 33 29 32 32 27 28 29 29 31 32 29 33 30 31 29 29 28 28 32 28 27 26 26 27 29 28 27 26 28 29
35 34 32 31 31 29 27 27 26 26 30 30 26 25 25 27 29 27 28 30 28 27 28 27 26 28 30 27 25 25 24 24 26 26 28 25 24 25
32 27 28 27 27 27 23 24 23 25 23 25 25 24 23 23 23 23 23 29 29 28 27 26 28 32 32 28 25 24 23 23 23 24 25 24 24 23
31 29 28 26 25 25 27 28 29 31 23 23 23 22 24 25 23 21 20 26 23 27 26 26 28 26 29 26 25 23 22 21 20 21 22 23 23 22
33 31 27 26 26 24 25 25 26 26 26 29 27 29 25 28 20 16 20 23 24 27 26 28 29 30 26 29 24 25 23 22 21 19 19 20 20 20
34 34 34 31 30 27 27 27 27 28 29 29 29 29 29 26 24 23 22 29 30 30 31 25 31 28 30 25 24 23 23 21 20 21 19 18 19 20
33 33 32 29 25 25 26 25 25 25 26 25 24 23 21 22 23 23 26 25 26 27 31 30 29 27 28 28 26 21 20 20 18 18 18 20 24 23
31 31 29 28 24 23 26 25 24 25 25 24 24 24 25 25 23 31 29 25 28 25 30 28 27 27 24 27 26 28 27 18 16 17 17 19 22 25
30 30 29 25 24 23 24 27 25 28 25 25 25 26 27 27 28 30 30 30 29 29 29 29 26 26 27 24 24 24 24 24 27 22 18 18 20 20
32 32 30 24 23 22 23 23 24 26 26 25 25 25 26 25 26 27 27 27 27 28 27 29 27 25 24 23 22 22 23 23 24 22 23 20 18 18
33 31 27 23 24 22 21 22 23 25 25 25 26 26 28 27 25 24 24 24 24 24 25 24 25 27 27 26 23 21 21 21 21 21 21 20 20 23
29 29 26 25 25 24 21 22 24 25 25 25 27 28 25 23 23 23 23 23 21 21 23 23 24 25 23 23 21 20 20 20 20 19 20 19 18 19
30 28 26 27 26 24 22 21 22 23 23 25 26 24 21 19 20 20 20 20 20 18 19 19 22 23 24 22 20 20 20 19 19 18 19 17 19 18
27 26 25 26 25 23 20 20 20 21 20 20 22 20 18 16 15 16 16 17 17 16 16 16 16 16 16 17 16 18 18 19 19 19 18 17 18 20
27 25 27 27 26 22 19 19 20 20 17 18 19 20 19 16 17 13 12 12 12 11 11 12 12 14 14 16 14 12 19 16 16 17 16 16 17 18
25 25 27 27 24 20 19 18 19 21 21 18 20 23 24 18 17 15 14 14 11 6 6 5 5 6 10 17 22 17 12 16 15 16 14 16 17 13
24 24 25 26 24 20 24 25 28 27 26 26 22 23 27 19 18 16 15 18 16 8 4 2 3 16 7 11 17 16 15 11 11 13 13 13 13 14
25 24 25 25 26 25 29 29 29 28 26 24 27 27 28 23 20 19 19 17 13 12 6 5 7 5 2 4 8 16 15 14 12 9 9 10 13 13
29 27 28 29 30 30 23 26 23 25 24 24 24 24 27 23 20 20 19 17 14 11 9 6 6 4 2 1 6 9 8 14 10 8 9 12 9 6